This is the latest recevied weather packets stored in our database for station/object VK2ZAZ-10. If no packets are shown the sender has not sent any weather packets the latest 10 day(s).
| Time | Temp. | Humidity | Pressure | Rain* | Wind** | Luminosity | Snow |
|---|---|---|---|---|---|---|---|
| 1778316278 | 19.44° C | 44% | 1027.7 hPa | - | - | - | - |
| 1778314476 | 19.44° C | 44% | 1027.4 hPa | - | - | - | - |
| 1778312676 | 20° C | 44% | 1026.9 hPa | - | - | - | - |
| 1778310876 | 20° C | 44% | 1026.5 hPa | - | - | - | - |
| 1778309077 | 20.56° C | 43% | 1026.2 hPa | - | - | - | - |
| 1778307277 | 20.56° C | 43% | 1026.1 hPa | - | - | - | - |
| 1778305476 | 20.56° C | 43% | 1025.8 hPa | - | - | - | - |
| 1778303676 | 20.56° C | 43% | 1025.9 hPa | - | - | - | - |
| 1778301876 | 20.56° C | 43% | 1025.9 hPa | - | - | - | - |
| 1778300077 | 20.56° C | 43% | 1025.9 hPa | - | - | - | - |
| 1778298275 | 20.56° C | 43% | 1025.8 hPa | - | - | - | - |
| 1778296477 | 20.56° C | 43% | 1026 hPa | - | - | - | - |
| 1778294675 | 20° C | 43% | 1026.4 hPa | - | - | - | - |
| 1778292875 | 20° C | 44% | 1026.8 hPa | - | - | - | - |
| 1778291075 | 19.44° C | 44% | 1027.2 hPa | - | - | - | - |
| 1778289275 | 19.44° C | 44% | 1027.6 hPa | - | - | - | - |
| 1778287476 | 19.44° C | 44% | 1027.9 hPa | - | - | - | - |
| 1778285675 | 19.44° C | 44% | 1028 hPa | - | - | - | - |
| 1778283876 | 18.89° C | 44% | 1028 hPa | - | - | - | - |
| 1778282075 | 17.78° C | 46% | 1028 hPa | - | - | - | - |
| 1778280275 | 17.22° C | 46% | 1028 hPa | - | - | - | - |
| 1778278475 | 15.56° C | 48% | 1027.9 hPa | - | - | - | - |
| 1778276676 | 15° C | 48% | 1027.7 hPa | - | - | - | - |
| 1778274875 | 15° C | 47% | 1027.3 hPa | - | - | - | - |
| 1778273076 | 15.56° C | 46% | 1026.9 hPa | - | - | - | - |
* Rain since midnight (hover to see other rain measurements)
** Current wind speed in m/s (hover to see current wind gust speed)